FW6569 Weather Reports


Display with metric or nautical units.
time (UTC)temp
F
wind
direction
speed
MPH
gust
MPH
rain 1hr
in
rain 24hr
in
rain mn
in
humidity
%
barometer
mb
20260901173518 89 228 6.0 13.0 0.00 0.00 0.00 64 1019.5
20260901172538 88 225 6.0 11.0 0.00 0.00 0.00 64 1019.6
20260901171518 90 220 6.0 9.0 0.00 0.00 0.00 66 1019.6
20260901170548 89 228 6.0 13.0 0.00 0.00 0.00 65 1019.6
20260901165608 87 209 5.0 8.0 0.00 0.00 0.00 67 1019.7
20260901164618 87 203 7.0 10.0 0.00 0.00 0.00 69 1019.7
20260901163538 88 202 6.0 11.0 0.00 0.00 0.00 69 1019.8
20260901162538 87 258 4.0 6.0 0.00 0.00 0.00 71 1020.0
20260901161518 86 245 5.0 10.0 0.00 0.00 0.00 69 1020.0
20260901160539 85 210 7.0 10.0 0.00 0.00 0.00 71 1020.1
20260901155518 86 200 7.0 9.0 0.00 0.00 0.00 70 1020.2
20260901154539 85 228 5.0 7.0 0.00 0.00 0.00 73 1020.2
20260901153558 85 200 6.0 8.0 0.00 0.00 0.00 76 1020.3
20260901152518 85 266 4.0 7.0 0.00 0.00 0.00 73 1020.2
20260901151528 83 221 6.0 8.0 0.00 0.00 0.00 76 1020.2
20260901150608 85 231 5.0 9.0 0.00 0.00 0.00 74 1020.2
20260901145648 84 269 5.0 9.0 0.00 0.00 0.00 76 1020.2
20260901144609 84 219 5.0 8.0 0.00 0.00 0.00 76 1020.1
20260901143538 83 220 5.0 7.0 0.00 0.00 0.00 78 1020.1
20260901142539 81 208 7.0 8.0 0.00 0.00 0.00 81 1020.1
20260901141539 81 214 6.0 7.0 0.00 0.00 0.00 80 1020.3
20260901140528 81 191 6.0 7.0 0.00 0.00 0.00 80 1020.3
20260901135608 81 197 4.0 6.0 0.00 0.00 0.00 82 1020.4
20260901134558 78 202 5.0 8.0 0.00 0.00 0.00 85 1020.5
20260901133618 79 211 4.0 5.0 0.00 0.00 0.00 83 1020.5
20260901132638 78 226 2.0 5.0 0.00 0.00 0.00 84 1020.4
20260901131528 77 232 4.0 6.0 0.00 0.00 0.00 86 1020.4
20260901130548 78 207 4.0 5.0 0.00 0.00 0.00 86 1020.2
20260901125528 77 179 3.0 3.0 0.00 0.00 0.00 88 1020.2
20260901124718 75 198 1.0 4.0 0.00 0.00 0.00 94 1020.3
20260901123528 73 231 0.0 2.0 0.00 0.00 0.00 97 1020.4
20260901122628 73 0.0 0.0 0.00 0.00 0.00 98 1020.3
20260901121528 71 209 0.0 2.0 0.00 0.00 0.00 99 1020.2
20260901120538 70 0.0 0.0 0.00 0.00 0.00 99 1020.1
20260901115528 69 0.0 0.0 0.00 0.00 0.00 99 1020.1
20260901114528 68 0.0 0.0 0.00 0.00 0.00 99 1020.0
20260901113608 67 254 0.0 2.0 0.00 0.00 0.00 99 1019.8
20260901112619 67 0.0 0.0 0.00 0.00 0.00 99 1019.6
20260901111528 67 0.0 0.0 0.00 0.00 0.00 99 1019.6
20260901110528 67 0.0 0.0 0.00 0.00 0.00 98 1019.5
20260901105608 68 0.0 0.0 0.00 0.00 0.00 98 1019.3
20260901104528 68 0.0 0.0 0.00 0.00 0.00 98 1019.3
20260901103528 68 0.0 0.0 0.00 0.00 0.00 98 1019.2
20260901102608 68 0.0 0.0 0.00 0.00 0.00 98 1019.2
20260901101548 68 0.0 0.0 0.00 0.00 0.00 98 1019.1
20260901100549 68 0.0 0.0 0.00 0.00 0.00 98 1018.9
20260901095549 68 0.0 0.0 0.00 0.00 0.00 98 1018.9
20260901094528 68 0.0 0.0 0.00 0.00 0.00 98 1018.8
20260901093529 68 0.0 0.0 0.00 0.00 0.00 97 1018.8
20260901092528 68 0.0 0.0 0.00 0.00 0.00 97 1018.7
20260901091528 69 0.0 0.0 0.00 0.00 0.00 97 1018.8
20260901090528 69 0.0 0.0 0.00 0.00 0.00 97 1018.8
20260901085529 69 0.0 0.0 0.00 0.00 0.00 97 1018.7
20260901084539 69 0.0 0.0 0.00 0.00 0.00 96 1018.7
20260901083519 70 0.0 0.0 0.00 0.00 0.00 96 1018.6
20260901082519 70 0.0 0.0 0.00 0.00 0.00 96 1018.7
20260901081519 71 0.0 0.0 0.00 0.00 0.00 95 1018.6
20260901080519 71 0.0 1.0 0.00 0.00 0.00 95 1018.5
20260901075539 71 0.0 0.0 0.00 0.00 0.00 95 1018.4
20260901074518 71 0.0 0.0 0.00 0.00 0.00 94 1018.4
20260901073549 72 0.0 0.0 0.00 0.00 0.00 93 1018.2
20260901072519 73 0.0 0.0 0.00 0.00 0.00 92 1018.1
20260901071518 73 0.0 0.0 0.00 0.00 0.00 91 1018.2
20260901070529 74 250 1.0 3.0 0.00 0.00 0.00 89 1018.2
20260901065519 75 228 2.0 4.0 0.00 0.00 0.00 88 1018.2
20260901064519 75 224 4.0 6.0 0.00 0.00 0.00 89 1018.2
20260901063519 74 220 2.0 5.0 0.00 0.00 0.00 90 1018.3
20260901062540 74 214 3.0 3.0 0.00 0.00 0.00 91 1018.3
20260901061519 74 206 4.0 5.0 0.00 0.00 0.00 91 1018.4
20260901060539 73 203 0.0 3.0 0.00 0.00 0.00 94 1018.6
20260901055519 72 212 2.0 4.0 0.00 0.00 0.00 97 1018.7
20260901054539 72 0.0 0.0 0.00 0.00 0.00 98 1018.8
20260901053519 73 0.0 0.0 0.00 0.00 0.00 98 1018.8
20260901052519 72 0.0 0.0 0.00 0.00 0.00 98 1018.9
20260901051519 72 0.0 0.0 0.00 0.00 0.00 98 1018.9
20260901050519 73 0.0 0.0 0.00 0.00 0.00 98 1019.0
20260901045519 73 0.0 0.0 0.00 0.00 0.00 98 1018.9
20260901044520 72 0.0 0.0 0.00 0.00 0.00 98 1018.9
20260901043519 72 0.0 0.0 0.00 0.00 0.00 98 1019.0
20260901042519 72 0.0 0.0 0.00 0.00 0.00 97 1019.0
20260901041519 73 0.0 0.0 0.00 0.00 0.00 97 1019.0
20260901040519 73 0.0 0.0 0.00 0.00 0.00 97 1018.9
20260901035519 73 0.0 0.0 0.00 0.00 0.00 97 1019.1
20260901034520 73 0.0 0.0 0.00 0.00 0.00 97 1019.1
20260901033519 73 0.0 0.0 0.00 0.00 0.00 96 1019.0
20260901032539 73 0.0 0.0 0.00 0.00 0.00 96 1019.1
20260901031520 73 0.0 0.0 0.00 0.00 0.00 95 1019.2
20260901030519 73 0.0 0.0 0.00 0.00 0.00 95 1019.3
20260901025519 74 0.0 0.0 0.00 0.00 0.00 95 1019.3
20260901024519 74 0.0 0.0 0.00 0.00 0.00 94 1019.3
20260901023519 74 0.0 0.0 0.00 0.00 0.00 94 1019.3
20260901022520 75 0.0 0.0 0.00 0.00 0.00 94 1019.2
20260901021550 75 0.0 0.0 0.00 0.00 0.00 93 1019.2
20260901020549 75 0.0 0.0 0.00 0.00 0.00 93 1019.1
20260901015520 75 0.0 0.0 0.00 0.00 0.00 92 1018.9
20260901014519 76 0.0 0.0 0.00 0.00 0.00 90 1018.8
20260901013620 77 0.0 2.0 0.00 0.00 0.00 88 1018.7
20260901012540 77 162 0.0 2.0 0.00 0.00 0.00 88 1018.6
20260901011529 78 0.0 0.0 0.00 0.00 0.00 87 1018.4
20260901010644 78 320 0.0 3.0 0.00 0.00 0.00 87 1018.2
20260901005520 79 241 1.0 3.0 0.00 0.00 0.00 85 1018.0
20260901004530 80 279 0.0 4.0 0.00 0.00 0.00 83 1018.0
20260901003520 80 252 2.0 4.0 0.00 0.00 0.00 83 1017.9
20260901002520 80 217 3.0 4.0 0.00 0.00 0.00 83 1017.9
20260901001540 81 209 3.0 4.0 0.00 0.00 0.00 82 1017.9
20260901000540 82 0.0 0.0 0.00 0.00 0.00 81 1018.1
20260831235530 84 0.0 0.0 0.00 0.00 0.00 78 1018.1
20260831234540 85 0.0 0.0 0.00 0.00 0.00 76 1018.1
20260831233530 85 215 3.0 5.0 0.00 0.00 0.00 74 1018.0
20260831232520 86 209 3.0 4.0 0.00 0.00 0.00 73 1017.9
20260831231520 87 208 4.0 5.0 0.00 0.00 0.00 71 1018.0
20260831230520 89 197 4.0 5.0 0.00 0.00 0.00 69 1018.0
20260831225543 89 201 4.0 4.0 0.00 0.00 0.00 69 1018.0
20260831224520 88 204 3.0 4.0 0.00 0.00 0.00 69 1018.1
20260831223520 88 200 3.0 4.0 0.00 0.00 0.00 70 1018.2
20260831222530 89 215 3.0 4.0 0.00 0.00 0.00 69 1018.3
20260831221520 89 215 3.0 4.0 0.00 0.00 0.00 69 1018.3
20260831220610 89 202 4.0 6.0 0.00 0.00 0.00 66 1018.4
20260831215521 89 205 4.0 6.0 0.00 0.00 0.00 66 1018.4
20260831214520 90 203 4.0 5.0 0.00 0.00 0.00 65 1018.5
20260831213521 90 206 4.0 6.0 0.00 0.00 0.00 64 1018.5
20260831212530 91 212 5.0 6.0 0.00 0.00 0.00 62 1018.5
20260831211520 91 204 4.0 5.0 0.00 0.00 0.00 64 1018.6
20260831210540 90 233 4.0 5.0 0.00 0.00 0.00 63 1018.7
20260831205520 91 195 6.0 7.0 0.00 0.00 0.00 60 1018.8
20260831204530 90 229 6.0 7.0 0.00 0.00 0.00 62 1018.9
20260831203521 91 217 7.0 10.0 0.00 0.00 0.00 59 1019.0
20260831202520 93 221 6.0 8.0 0.00 0.00 0.00 57 1019.0
20260831201521 92 209 7.0 9.0 0.00 0.00 0.00 58 1019.2
20260831200521 94 210 5.0 7.0 0.00 0.00 0.00 58 1019.3
20260831195530 93 209 4.0 6.0 0.00 0.00 0.00 61 1019.5
20260831194520 93 211 4.0 9.0 0.00 0.00 0.00 57 1019.6
20260831193600 93 228 5.0 6.0 0.00 0.00 0.00 57 1019.7
20260831192550 93 9.0 14.0 0.00 0.00 0.00 58 1019.8
20260831191531 94 256 2.0 5.0 0.00 0.00 0.00 61 1019.8
20260831190650 93 245 3.0 6.0 0.00 0.00 0.00 58 1020.0
20260831185551 92 270 2.0 4.0 0.00 0.00 0.00 65 1020.1
20260831184530 90 257 1.0 3.0 0.00 0.00 0.00 68 1020.1
20260831183541 92 239 4.0 5.0 0.00 0.00 0.00 64 1020.1
20260831182550 90 343 2.0 7.0 0.00 0.00 0.00 66 1020.4
20260831181521 91 211 4.0 6.0 0.00 0.00 0.00 65 1020.4
20260831180520 91 238 5.0 7.0 0.00 0.00 0.00 63 1020.5
20260831175600 90 248 5.0 8.0 0.00 0.00 0.00 63 1020.5
20260831174543 90 219 6.0 12.0 0.00 0.00 0.00 64 1020.5
20260831173530 90 219 7.0 9.0 0.00 0.00 0.00 65 1020.5